Погода в Рыбачьем

Россия / Калининградская область     55°09′19″N   20°51′01″E
темп.,
°C
ветер,
м/с
пор.,
м/с
влажн.,
%
обл.,
%
осадки,
мм/ч
давл.,
гПа
погр.,
м
23 мая, пн
пн2323:00+10ссз7983100 0.0 1013226
02:00+10с5684100 0.0 1013163
05:00+10с447973 0.0 1014130
08:00+10св45765 0.0 1014173
11:00+10с227059 0.0 1015112
14:00+11ссз44655 0.0 1014139
17:00+12с44703 0.0 1013112
20:00+11ссв44695 0.0 101347
24 мая, вт
вт2423:00+11всв44735 0.0 101341
02:00+11юв568318 0.0 1012104
05:00+10юв79835 0.0 1011163
08:00+11юв7108348 0.0 1011164
11:00+13юв6974100 0.0 101190
14:00+14ююв71070100 0.0 101086
17:00+14юв81168100 0.0 101088
20:00+12юз4490100 0.0 101136
25 мая, ср
ср2523:00+13ююв4493100 0.1 101136
02:00+12ю459691 0.3 101252
05:00+12юз339795 0.0 101122
08:00+12зюз3396100 0.0 101218
11:00+11зсз3399100 2.3 101226
14:00+12зюз2299100 6.0 101312
17:00+12зюз229889 0.0 101314
20:00+12з33945 0.0 101239
26 мая, чт
чт2623:00+11зюз5688100 0.0 101361
02:00+12зюз61085100 0.0 1012154
05:00+11юз699035 0.0 1011139
08:00+11зюз8138795 0.0 1011277
11:00+12зюз9158293 0.1 1010423
14:00+12зюз1319855 0.2 1010596
17:00+12з1421850 0.0 1010622
20:00+12з1420800 0.0 1010548
27 мая, пт
пт2723:00+12з1318815 0.0 1011515
02:00+11з1116835 0.0 1010696
05:00+11з10138539 0.0 1010654
08:00+11зюз81186100 0.1 1009587
11:00+11юз81093100 0.3 1006511
14:00+12з1317826 1.3 1004553
17:00+11з1317740 0.0 1004913
20:00+11з14187663 0.0 10031013